map of PAP home
PAP - Airport
Location
City:  Port-au-Prince, Haiti
Name:Toussaint Louverture International Airport
ICAO:MTPP
IATA:PAP

Details
Type:Airport (Aerodrome, Airfield)
Use:Public/Civil, International (customs port of entry)
Latitude:1834'48"N (18.580050)
Longitude:7217'33"W (-72.292541)
Datum:WGS 1984
Elevation:122 ft (37 m)
Variation:10.26W (WMM2015 magnetic declination)
-0.09 annual change
Runways:1
Longest:9974 × 141 ft (3040 × 43 m), paved

Time
Time Zone:UTC-5
Local Time:

Weather
METAR:MTPP 201500Z 09017KT 9000 FEW024 33/23 Q1013 A2993
TAF:MTPP 191700Z 1918/2018 09010G22KT 9999 FEW026
BECMG 1920/1923 28008KT PROB30
TEMPO 2000/2004 4500 -SHRA SCT022CB SCT030
BECMG 2006/2010 VRB02KT 7000 NSW FEW020
BECMG 2014/2017 09010KT

Related Locations
Nearby:
Farthest:EXM: 11965 mi / 19256 km
Exmouth Gulf, WA, AU

Find:

   beyond  
but within

Other Information
Maps:
NOTAMs:
Links:
Sources:

  
  • flag of Haiti
  

Sectional Chart

Flight Planning
at skyvector.com

Satellite Image

Google Maps Satellite view

 

Copyright © 2004-2018 Karl L. Swartz. All rights reserved.
The Great Circle Mapper name and logo are trademarks of the Great Circle Mapper.
All other trademarks mentioned herein belong to their respective owners.
Please see credits for attibutions and further copyright information.

  Follow gcmap on Facebook Follow gcmap on Twitter Follow gcmap on Google+ GCmap on LinkedIn

hCard Microformat

Geo Microformat